User: anonymous   Login
Location: Cannifist
(18.2333°N, 63.0167°W)
Time: 07:19:55
(UTC+00:00)
Language:

Star 37E S/N 40099 - Orbit

View from above orbital plane
View from above orbital plane
View from above satellite
View from above satellite

Ground track
Ground track

The orbit data is extracted from the following two-line orbital elements,

1 15206U 84088F   20155.84477295 -.00000903 +00000-0 -77764-2 0  9998
2 15206 027.4699 263.3726 7787780 181.7011 171.6993 01.58385094205753
Epoch (UTC): 03 June 2020 20:16:28
Eccentricity: 0.7787780
inclination: 27.4699°
perigee height: 499 km
apogee height: 48920 km
right ascension of ascending node: 263.3726°
argument of perigee: 181.7011°
revolutions per day: 1.58385094
mean anomaly at epoch: 171.6993°
orbit number at epoch: 20575

The dashed part of the orbit path shows where the satellite is in the earth's shadow,  

DLR